STARLINK-35795, 66369

Orbit data source: Space-Track

STARLINK-35795, 66369 is a payload satellite owned by SpaceX/Seattle (US) in LEO that was launched on Thu, 06 Nov 2025 UTC via an FALCON 9 launch vehicle from the Air Force Western Test Range (AFWTR). Payload-class satellites include a variety of spacecraft equipped with specific instruments for various scientific and technological missions. These include communications satellites like Starlink; space stations such as the ISS; scientific satellites like the Hubble; Earth observation satellites from companies like Planet Labs, Umbra, and HawkEye 360; GPS; miniature CubeSats for education and research; and military/defense satellites.

Loading next visibility...
Identifier
66369, 2025-254X
Orbit
LEO
Country
Flag of USUS
Related business
Manufacturer
SpaceX/Seattle
Mission
Operational Commercial Communications
Bus & Motor
STARLINK V2MO, Unknown motor
Mass
575 kg wet, ~530 kg dry
Launch date (UTC)
2025-11-06 (7 months ago)
Launch vehicle
FALCON 9
Launch site
Air Force Western Test Range (AFWTR)
Object type
Payload
Rocket body
Debris
Shape & HBR
Box + 2 Pan, 17.7 m
Radar Cross Section
36.964 m², Large (>1 m²)

Expand to show TLE details & history
Last TLE update: 15 hours ago

TLE from 15 hours ago
0 STARLINK-35795
1 66369U 25254X   26171.21539744  .00016469  00000-0  56675-3 0  9998
2 66369  53.1586 113.9999 0001447  92.4980 267.6186 15.30210254 34702
Epoch: 2026-06-20T05:10Z
TLE epoch observation values (Epoch: 2026-06-20T05:10:10.338Z)
Latitude
-0.00007°
Longitude
128.02355°
Altitude
476.125 km
Speed
7.629 km/s
True Right ascension
07h 35m 59s
True Declination
0° 00' 00"
Sunlit
Object was in daylight at epoch
Visualization orbit readout
Latitude
Unknown
Longitude
Unknown
Altitude
Unknown
Speed
Unknown
Apparent Right ascension
Unknown
Apparent Declination
Unknown
Sunlit
N/A
Visualization observer readout
Local Sidereal Time
07:17:44
Azimuth
Unknown
Elevation
Unknown
Doppler factor
Unknown
Orbital elements
Apogee altitude
476.433 km
Perigee altitude
474.449 km
Semi-major axis
6,853.578 km
Eccentricity
0.00014
Inclination
53.1586°
RAAN
113.9999°
Arg. of periapsis
92.498°
True anomaly
267.60203°
Mean anomaly
267.6186°
Eccentric anomaly
267.61032°
Mean motion
3.82531 °/min
Orbital period
94.11 mins
BSTAR
0.00056675
Loading maneuver chart data...
Computing Atmospheric mass density...
Loading historical data...
Loading historical data...
Loading historical data...
Loading historical data...
Loading historical data...
Loading historical data...
Loading historical data...

Documentation

Showing up to 5 results
|